THORAD AGENA D DEB, 4644

Orbit data source: Space-Track

THORAD AGENA D DEB, 4644 is space debris in SSO originally from a launch on Wed, 08 Apr 1970 UTC launched from the Air Force Western Test Range (AFWTR). Debris objects in space refer to the collection of defunct objects orbiting the Earth. Examples of debris include non-operational satellites, rocket bodies, and fragments generated from explosions, collisions, or faulty payload assembly.

Loading next visibility...
Identifier
4644, 1970-025AC
Orbit
SSO
Last TLE update
13 hours ago
Origin
Manufacturer
Unknown
Mission
Spacecraft
Bus & Motor
Unknown
Mass
Unknown
Launch date (UTC)
1970-04-08 (55 years ago)
Launch vehicle
Unknown
Launch site
Air Force Western Test Range (AFWTR)
Object type
Payload
Rocket body
Debris
Shape & HBR
Unknown
Radar Cross Section
Medium (>0.1 m² and <1 m²)

Expand to show TLE details & history

TLE from 13 hours ago
0 THORAD AGENA D DEB
1 04644U 70025AC  25128.69141503  .00000453  00000-0  66413-3 0  9994
2 04644  99.5905  26.3160 0008237 246.4125 169.0434 13.60198964722183
Epoch: 2025-05-08T16:35Z
Definitive object data (Epoch: 2025-05-08T16:35:38.258Z)
Latitude
54.42459°
Longitude
-102.94374°
Altitude
1,049.853 km
Speed
7.329 km/s
True Right ascension
00h 50m 53s
True Declination
54° 16' 05"
Sunlit
Object was in daylight at TLE epoch
Visualization TLE readout
Latitude
-3.43276°
Longitude
90.60046°
Altitude
1,035.382 km
Speed
7.335 km/s
Apparent Right ascension
13h 48m 16s
Apparent Declination
-60° 59' 31"
Sunlit
Object is in full shadow
Visualization observer readout
Local Sidereal Time
13:43:26
Azimuth
179.402° S
Elevation
-10.913°
Doppler factor
1
Orbital elements
Apogee altitude
1,038.355 km
Perigee altitude
1,026.147 km
Semi-major axis
7,410.388 km
Eccentricity
0.0008237
Inclination
99.5905°
RAAN
26.316°
Arg. of periapsis
246.4125°
True anomaly
169.06132°
Mean anomaly
169.0434°
Eccentric anomaly
169.05236°
Mean motion
3.40237 °/min
BSTAR
0.00066413
Orbital period
105.81 mins
Loading maneuver chart data...
Loading SW <> Apogee altitude chart data...

THORAD AGENA D DEB Visibility forecast

Observer location: undefined°, undefined°

Span
Click to sort rows by Start time (UTC) header in descending order
Start Az.
Max El. time (UTC)
Max El. Az.
Max El.
End time (UTC)
End Az.
10 mins2025-05-09 07:01:44.566Z353.88° N2025-05-09 07:06:44.566Z293.055° NW29.88°2025-05-09 07:11:44.566Z234.559° WSW
6 mins2025-05-09 15:27:44.566Z86.738° E2025-05-09 15:30:44.566Z54.294° ENE17.101°2025-05-09 15:33:44.566Z23.862° NE
11 mins2025-05-09 17:08:44.566Z169.274° S2025-05-09 17:13:44.566Z220.316° SW44.3°2025-05-09 17:19:44.566Z342.483° N
|